Zurück zum Katalog

STARLINK-36711

AktivKommunikationVLEO
NORAD 68040·PAYLOAD·🇺🇸 United States

Gestartet Mar 2, 2026 von Vandenberg Space Force Base

Loading…

Nächste Überflüge (nächste 24 Stunden)

TLE

AktuellSource: CelesTrak SupGP

Epoche: Sep 15, 2026, 03:38 UTC

1 68040C 26041A   26258.15187500 -.00051875  00000+0 -15325-2 0  2584
2 68040  53.1577 244.7286 0001210  93.1110  63.6426 15.34418958    16

Verfolge STARLINK-36711 in Echtzeit mit AllMySat

Download on the App Store